RH
41 41 41 39 38 37 36 36 35 35 34 34 34 34 33 34 33 34 34 34 34 33 33 32 32 31 31 30 29 28 28 28 27 27 26 26 26 25 25 25 25 25 24 24 24 25 25 26 26 27 28 29 30 31 32 33 34 35 36 37 38 38 38 39 39 39 39 40 40 40 40 40 40 41 41 42 42 42 41 41 42 42 42 43 44
45 44 44 42 41 41 40 40 40 40 40 39 39 39 39 39 39 38 39 39 38 38 37 37 37 36 36 35 34 34 34 33 33 32 32 32 31 30 30 29 29 29 28 27 27 26 26 26 26 25 25 25 25 25 25 25 25 25 26 26 27 28 28 29 30 31 32 33 34 34 35 35 35 36 37 38 39 40 40 41 41 41 41 40 40
46 46 46 45 44 44 44 44 44 44 44 44 44 44 44 44 44 43 43 43 43 42 42 42 41 41 41 40 40 40 39 39 38 38 37 36 36 36 36 35 35 35 34 34 33 33 33 32 32 31 31 31 31 30 30 29 28 27 27 26 25 25 25 24 24 23 23 24 24 25 26 27 28 29 30 31 32 33 35 36 38 39 40 40 40
45 45 44 44 44 43 43 43 43 43 43 43 43 44 44 44 44 43 43 43 43 42 42 41 41 41 40 39 39 38 37 37 36 36 35 34 34 34 33 33 33 32 32 32 32 31 31 31 30 30 30 30 30 30 30 30 29 29 29 29 28 28 27 27 26 25 25 24 23 22 22 21 22 22 22 23 23 25 27 28 30 32 34 36 37
44 43 43 42 42 41 41 40 40 40 39 39 39 39 38 38 38 38 38 37 37 37 36 35 35 35 34 34 33 33 32 32 32 31 31 30 30 30 29 29 29 28 28 27 27 27 27 27 27 27 27 27 27 27 27 27 27 27 27 27 26 26 26 25 25 25 25 25 25 24 24 24 23 22 21 20 19 18 18 19 21 22 25 27 30
45 44 43 42 42 41 40 40 39 38 38 38 37 37 36 36 36 36 36 36 35 35 35 35 35 35 35 35 35 35 35 34 34 33 33 32 32 32 32 32 31 31 30 30 29 29 29 29 29 29 28 28 29 29 29 29 29 29 29 28 28 27 26 25 24 23 22 22 22 22 22 22 22 22 23 22 21 20 19 17 16 16 17 18 20
49 48 47 46 45 44 43 42 41 40 40 39 39 38 38 38 38 38 38 38 38 38 38 38 38 39 39 39 39 39 39 39 39 39 39 38 38 38 38 38 37 37 36 36 35 35 35 35 34 34 34 34 33 33 33 33 33 33 32 32 32 31 30 29 28 26 24 23 22 21 20 20 19 19 20 19 19 20 20 19 18 18 17 16 16
54 53 52 51 50 49 47 46 44 43 42 42 42 41 41 41 40 40 40 40 40 39 39 39 39 40 40 41 41 41 41 41 41 42 42 41 41 41 41 41 41 41 41 40 39 39 39 39 39 38 38 37 36 36 35 35 34 34 34 34 33 33 33 32 31 30 29 27 25 24 23 22 21 19 19 18 17 17 17 17 16 16 17 17 17
61 59 56 55 55 54 52 51 49 48 48 47 46 45 45 45 44 44 44 44 44 43 43 42 42 43 44 44 45 44 44 43 43 43 43 42 42 42 42 42 42 42 42 42 41 41 41 40 40 40 39 38 37 36 35 35 34 34 33 32 32 32 32 31 31 31 30 29 27 26 25 24 23 22 20 19 18 17 17 17 16 14 13 13 14
72 69 64 59 58 57 56 56 54 53 53 52 52 52 51 51 51 51 50 50 50 49 48 48 48 48 49 49 50 50 49 48 48 47 47 46 46 46 46 45 45 45 45 45 46 46 46 46 46 45 44 42 40 39 39 38 37 37 36 35 34 33 33 32 31 31 30 29 28 26 25 24 23 22 21 20 19 18 17 17 16 15 14 13 12
80 78 75 69 65 65 65 63 61 57 54 53 54 56 56 56 56 56 56 56 55 55 55 55 54 55 55 55 55 54 53 53 52 51 51 50 49 49 48 48 47 47 47 47 48 49 50 51 51 50 49 48 46 45 45 44 44 43 42 41 41 40 39 38 36 34 32 30 29 27 25 23 22 21 19 19 18 17 16 16 15 15 14 14 13
73 76 77 76 75 75 75 74 71 65 59 56 58 61 62 61 61 61 62 62 61 61 60 60 60 59 59 58 58 57 56 56 55 54 54 53 52 51 50 50 50 49 49 49 49 50 50 51 52 52 53 53 51 50 49 49 48 48 47 47 47 46 45 43 41 38 35 33 30 28 25 23 21 19 18 16 15 15 14 14 14 13 13 13 12
58 62 65 69 71 72 73 73 72 69 64 61 60 62 64 64 64 64 64 64 63 63 62 62 62 62 61 60 60 59 60 60 60 59 59 58 57 56 56 56 55 54 54 53 53 53 53 54 55 56 56 56 55 54 53 53 53 53 53 53 52 52 50 48 45 42 39 36 33 29 26 23 20 18 16 14 13 13 12 12 12 12 12 12 11
58 59 58 59 60 61 61 61 61 61 60 59 56 56 58 60 61 61 61 62 62 63 64 65 65 65 66 66 67 68 69 68 67 66 66 65 64 64 63 61 60 59 59 59 59 59 58 58 57 57 57 57 58 58 59 60 61 61 61 60 59 57 54 51 48 45 41 38 34 30 26 22 20 17 15 14 13 13 13 13 13 13 13 13 13
65 66 64 63 63 63 63 61 60 59 58 58 56 54 53 54 55 57 58 60 62 64 66 67 68 70 71 73 76 78 78 76 74 74 73 72 71 70 68 67 66 65 64 64 62 61 60 59 58 58 59 61 63 65 67 69 69 69 68 66 63 61 57 54 50 45 40 35 31 27 23 20 18 17 16 15 15 15 15 14 14 14 15 15 16
65 67 68 69 69 70 71 70 69 68 67 66 64 62 60 59 59 60 62 64 65 67 69 71 74 76 79 81 82 82 81 79 78 77 76 75 75 75 73 71 70 69 67 65 64 63 63 62 61 62 63 66 70 73 74 75 76 76 74 71 68 65 61 56 50 44 38 32 28 24 22 20 19 18 18 17 17 16 15 15 15 15 15 16 17
63 65 67 69 71 72 73 74 75 76 75 74 73 71 69 67 66 67 68 69 71 73 76 79 81 83 82 82 82 82 82 81 80 79 79 80 80 79 77 74 72 71 70 68 68 66 64 63 62 63 66 70 74 78 80 81 81 80 78 75 71 66 60 53 46 39 34 30 27 25 24 23 22 21 21 20 20 18 17 16 16 15 16 16 17
67 65 65 66 67 68 69 72 75 77 79 80 81 80 79 79 79 80 81 82 83 84 85 86 85 85 84 83 83 85 85 85 84 84 84 84 83 80 78 76 74 72 70 69 67 65 63 63 64 66 69 73 76 80 82 83 82 80 77 73 67 60 52 45 39 35 32 31 30 30 29 28 26 25 24 23 22 20 19 19 18 18 17 17 18
79 75 72 69 65 64 65 67 69 71 75 78 80 83 84 86 88 90 92 91 90 89 88 86 85 85 85 85 86 88 88 86 86 87 87 85 82 80 77 75 72 70 70 68 66 65 66 67 69 71 73 75 78 81 82 82 80 76 71 64 57 49 42 38 36 35 35 35 34 34 33 31 29 28 27 25 23 21 20 20 19 19 18 17 17
81 80 79 76 72 70 68 68 68 68 69 69 71 74 76 80 83 85 87 88 88 88 87 87 86 86 86 87 87 87 86 84 84 85 85 83 81 79 76 73 71 72 73 72 71 72 73 74 76 76 75 78 82 82 81 80 76 68 59 51 45 41 39 38 39 39 39 38 37 36 35 34 32 30 28 25 23 21 20 19 18 16 16 15 14
76 74 75 74 75 76 75 74 72 69 67 66 66 67 69 72 76 80 83 85 87 88 88 88 87 87 87 86 85 83 81 79 79 80 81 80 80 79 77 75 76 78 79 79 80 80 80 79 80 79 79 82 85 84 79 73 64 54 45 42 40 40 42 43 43 43 42 41 40 38 36 35 33 30 28 25 23 21 18 17 15 13 12 11 10
86 78 72 71 74 79 82 85 83 80 76 72 70 68 68 69 71 74 77 80 83 84 84 84 84 83 82 81 81 80 78 76 76 77 78 79 81 81 80 82 86 87 87 87 87 85 83 83 82 82 83 86 85 79 69 57 49 43 41 41 41 43 45 46 46 46 45 43 41 39 37 34 32 29 26 23 21 18 16 14 12 11 10 10 9
103 92 80 76 79 83 89 95 99 100 97 93 89 85 83 82 80 79 79 80 82 83 84 85 85 84 83 82 82 81 80 79 79 79 81 85 87 87 88 92 94 93 92 92 90 88 86 84 83 86 87 84 74 62 52 45 43 42 42 43 44 46 48 48 48 47 45 43 41 39 36 33 29 25 22 19 16 14 13 12 11 10 10 10 9
110 106 97 90 88 91 96 102 108 111 109 105 103 102 103 103 100 100 99 97 96 97 98 98 97 95 92 91 90 89 88 87 84 84 87 91 93 93 95 97 97 96 95 94 92 89 86 85 87 87 80 68 55 47 44 44 44 44 45 46 47 48 49 49 48 47 44 42 39 37 34 30 26 21 17 15 13 12 12 11 11 11 11 10 10
109 111 110 102 97 96 99 104 108 111 111 109 106 104 105 107 107 106 106 106 106 104 105 105 105 104 102 99 97 94 92 90 88 90 94 96 97 98 99 98 97 98 96 93 91 89 88 88 83 73 61 51 46 46 46 47 46 47 48 49 49 49 50 49 47 45 42 40 37 34 29 25 21 17 14 13 12 12 12 12 12 11 11 11 11
107 108 110 107 105 104 106 107 108 109 109 110 110 105 103 105 106 105 104 104 105 104 104 104 104 104 102 100 97 95 93 92 93 96 98 99 100 100 99 97 96 96 94 92 92 91 87 77 65 55 49 48 49 49 50 49 49 50 51 52 52 52 51 49 46 43 40 37 33 28 23 19 16 14 14 13 13 13 13 12 12 12 12 12 11
104 104 103 104 107 109 111 111 111 111 109 109 111 108 104 103 104 106 105 104 105 104 103 104 103 102 99 98 98 96 95 96 97 99 100 99 99 99 97 94 93 95 95 94 90 80 68 58 52 51 51 51 52 52 52 51 52 53 55 55 55 53 51 47 44 41 37 32 27 22 18 15 14 14 14 14 14 14 14 14 14 14 13 13 13
94 93 92 95 98 100 103 105 107 110 109 108 108 105 104 105 104 105 104 104 104 104 102 102 102 101 100 99 99 98 97 98 98 99 98 96 95 95 95 95 96 95 90 81 69 59 53 52 53 54 53 53 54 53 53 53 54 56 57 57 56 53 50 45 41 36 31 26 22 18 15 15 15 15 15 15 15 14 15 15 15 15 15 15 15
85 83 82 84 87 89 92 96 101 106 107 108 107 104 104 104 102 104 104 103 103 102 101 101 100 100 101 99 99 98 98 98 97 95 94 95 96 96 96 95 89 80 68 58 53 52 54 56 57 56 55 55 55 53 53 54 56 57 58 57 55 51 46 42 37 32 27 22 18 15 15 15 15 16 15 15 15 15 15 15 15 15 15 16 15
79 76 74 73 73 72 74 79 85 92 97 103 105 106 107 105 104 105 106 106 106 104 102 102 102 104 104 102 101 100 99 97 96 93 92 92 91 87 81 75 66 57 53 52 54 56 58 58 58 58 58 57 56 55 54 55 57 59 58 56 52 47 42 37 33 28 22 18 16 16 16 16 16 16 16 16 16 16 15 15 15 15 15 15 14
70 67 64 61 58 56 57 61 66 70 74 79 83 86 90 92 94 97 97 101 105 104 103 102 102 104 103 100 97 94 90 86 82 79 76 73 69 65 60 57 54 53 55 56 58 59 60 60 60 60 60 59 57 56 56 58 59 59 57 53 47 42 37 33 28 23 19 17 17 17 17 17 17 17 17 17 16 15 15 15 15 15 15 15 14
55 52 51 50 48 48 50 52 55 57 58 60 61 63 65 67 69 72 73 76 80 81 82 81 80 80 79 76 73 70 67 63 61 60 59 58 58 57 57 56 56 57 57 59 61 63 63 62 62 62 61 60 58 58 59 60 61 58 54 48 42 37 33 29 23 19 18 18 18 18 18 18 18 18 17 17 16 15 15 15 15 15 15 14 14
45 44 44 45 46 49 50 50 51 51 52 53 54 55 58 59 59 60 61 63 63 64 63 62 61 60 59 58 57 56 55 55 56 57 58 58 60 60 60 59 59 59 61 64 66 66 65 65 65 64 62 61 59 59 60 60 58 54 47 40 36 33 29 24 20 19 19 19 19 19 19 19 18 18 17 17 16 16 15 15 15 15 14 14 13
45 45 46 47 50 51 51 51 51 50 51 52 52 54 56 58 59 60 60 59 59 59 58 58 58 57 57 57 56 56 57 59 61 61 61 62 63 62 62 61 61 63 66 69 70 68 68 67 66 64 62 61 60 59 58 57 53 47 40 34 31 28 23 20 20 20 20 19 20 19 19 19 18 17 16 16 15 15 15 15 15 14 13 13 12
46 47 49 51 53 52 52 53 53 54 54 55 56 58 58 59 60 60 60 59 59 59 59 60 60 59 58 58 58 60 62 63 63 63 63 64 64 63 63 63 65 69 72 72 70 68 67 65 63 62 61 60 59 57 55 52 46 40 34 29 26 22 20 20 20 21 20 21 21 20 20 19 18 18 17 15 14 14 13 13 12 11 11 10 10
44 46 48 50 50 51 52 54 56 57 58 58 59 59 59 60 60 60 61 62 62 62 62 62 62 61 60 60 61 63 64 64 64 64 64 64 65 65 66 66 69 72 72 70 67 65 63 61 60 58 58 58 56 53 50 45 39 33 28 24 22 20 20 21 21 21 21 21 21 21 20 20 20 19 18 16 15 14 13 12 11 10 9 9 10
38 39 41 42 43 45 47 49 51 52 54 55 55 56 56 57 58 59 60 60 61 61 62 61 60 60 60 61 63 63 64 64 64 64 64 65 66 67 67 68 70 70 67 64 62 60 58 57 56 55 56 56 53 48 43 38 33 28 23 21 20 20 21 22 21 21 21 21 21 21 20 20 20 20 18 16 15 13 12 11 10 10 10 11 11
30 31 32 33 34 35 36 37 39 39 41 42 43 44 46 46 48 49 50 51 53 54 54 53 53 54 56 58 59 60 61 61 61 62 63 65 66 66 65 65 65 62 60 58 56 55 53 52 52 53 53 53 49 42 36 32 27 23 20 20 21 21 22 22 22 22 22 22 22 21 20 20 20 19 17 15 14 12 11 11 11 11 12 14 13
26 25 24 24 25 26 26 27 28 28 29 29 30 31 33 34 36 37 38 40 41 42 42 43 45 47 50 51 52 54 55 55 56 57 59 60 60 59 57 57 56 54 53 52 51 50 49 49 50 51 50 48 42 35 30 26 23 20 20 21 21 22 23 23 22 22 23 22 22 21 19 19 18 17 16 14 12 11 11 11 11 11 13 14 14
20 19 18 17 17 18 19 19 20 20 21 21 21 22 23 24 25 26 28 30 31 31 32 34 37 39 40 42 43 44 45 46 47 49 50 51 50 49 48 48 47 47 47 47 46 45 46 47 47 48 45 41 36 30 25 22 20 20 20 21 21 22 23 23 23 24 24 23 22 20 19 17 16 15 14 13 12 12 11 11 11 11 12 13 12
13 14 14 13 12 13 13 13 13 14 14 15 15 16 16 17 18 19 21 22 22 24 25 26 28 29 31 32 32 34 35 36 38 39 40 41 40 40 40 40 41 42 42 42 42 43 44 45 44 43 39 34 30 26 22 20 19 20 20 20 21 23 23 23 24 24 23 22 21 20 19 17 15 14 13 13 13 12 11 11 11 12 12 12 12
10 10 10 9 10 10 10 11 11 11 11 12 12 13 13 14 14 15 16 16 17 18 18 19 20 21 22 23 24 25 27 27 29 30 31 32 32 33 34 35 37 38 38 39 40 41 42 42 40 36 32 28 24 22 21 21 20 20 20 21 22 23 23 23 23 24 23 22 20 19 18 16 15 14 14 14 14 14 13 12 11 10 10 11 12
9 9 9 9 9 9 10 10 10 10 11 11 11 11 12 12 12 13 13 13 14 14 14 15 16 16 17 18 18 20 21 21 23 24 24 26 27 28 30 32 33 34 35 37 38 38 38 38 34 30 26 23 21 21 21 22 21 20 21 22 22 22 22 21 21 22 22 20 19 18 17 16 15 15 15 15 16 15 15 13 12 10 10 10 11
7 8 8 8 8 8 9 9 9 10 10 10 10 10 10 11 11 12 12 12 13 13 13 13 14 14 15 15 16 16 17 17 19 20 21 23 24 26 28 30 31 32 33 35 35 34 34 32 29 25 22 20 20 21 22 22 22 22 23 23 22 21 19 19 19 19 19 18 17 17 17 17 17 16 17 17 17 16 15 14 12 11 11 11 11
6 6 6 6 7 7 7 8 8 8 8 9 9 9 9 10 10 11 12 12 12 12 12 13 13 14 14 14 14 15 15 16 17 19 20 22 23 25 27 28 29 30 31 32 32 30 29 27 24 22 20 20 21 22 23 22 22 23 24 23 21 19 18 17 16 16 16 16 16 16 17 18 19 19 19 20 20 18 16 14 13 12 12 12 11
5 5 5 5 5 5 6 6 6 7 7 7 7 7 8 9 9 9 10 10 11 11 12 12 13 13 13 14 14 14 15 16 18 19 21 22 23 24 26 26 27 28 28 29 28 26 24 22 21 20 21 22 22 23 23 23 23 24 24 23 20 19 17 16 15 15 14 14 15 16 18 19 20 20 20 20 20 19 17 15 14 13 13 12 11
5 5 5 5 5 5 5 5 6 6 6 6 7 7 7 8 8 9 9 9 10 10 10 11 12 12 13 13 13 15 16 17 19 20 20 21 22 23 24 24 25 25 25 25 23 21 20 20 20 21 22 23 24 24 24 24 23 23 23 21 19 17 16 14 14 13 14 15 16 17 19 19 19 19 18 17 16 15 14 14 14 13 14 13 12
5 5 5 5 5 5 5 6 6 6 6 6 6 6 7 7 7 7 8 8 9 9 9 10 11 12 13 13 14 16 17 18 19 19 20 20 21 21 22 22 22 22 21 21 20 19 19 19 20 22 23 23 25 26 25 24 23 23 21 19 17 16 14 14 14 14 14 16 17 18 18 18 17 17 17 16 16 16 15 14 13 13 13 13 12
5 5 5 5 5 5 5 6 6 6 6 6 6 6 7 7 7 7 8 8 8 9 9 10 10 11 12 13 14 16 16 17 18 18 18 18 18 19 19 19 18 18 18 18 19 19 20 20 21 22 23 24 26 26 24 22 22 21 19 17 16 15 14 14 14 15 15 17 18 18 17 17 16 16 16 16 16 16 15 14 12 12 12 12 11
5 5 5 5 5 6 6 6 6 6 6 6 6 6 7 7 7 7 8 8 8 8 9 9 10 10 11 12 13 14 14 15 15 15 15 16 16 17 17 17 16 17 18 19 20 20 20 21 22 23 24 24 25 24 23 22 21 19 17 16 15 15 16 16 17 16 16 17 18 17 17 16 15 15 14 14 13 13 12 11 10 10 10 11 11
5 6 6 6 6 6 6 6 6 6 6 6 6 6 7 7 7 7 7 8 8 8 8 9 9 10 10 11 12 12 12 13 13 14 14 15 15 16 16 16 17 18 19 20 20 21 21 21 22 24 24 23 23 22 21 20 19 17 15 15 16 18 19 19 19 18 18 19 19 18 17 16 15 13 13 13 13 12 11 10 9 9 8 9 10
Wind_Speed
65 66 67 68 68 69 69 69 70 71 71 72 73 74 74 75 75 76 77 78 79 80 81 82 83 84 86 87 88 88 89 90 91 92 93 94 96 97 98 98 99 101 103 104 106 107 108 110 112 113 116 118 120 123 125 127 129 131 133 135 137 138 140 142 142 143 143 144 145 146 147 148 148 149 149 150 150 150 150 150 150 150 150 150 150
64 65 66 67 66 67 67 68 68 69 69 70 71 72 72 73 74 74 75 77 78 79 80 81 81 82 83 84 85 86 86 87 88 89 90 91 92 93 93 94 95 96 98 99 100 100 101 103 104 105 107 108 110 112 114 116 118 121 123 125 128 130 133 136 138 140 141 143 145 147 148 150 151 151 152 153 153 154 154 154 154 154 154 153 153
62 62 63 64 64 64 65 66 66 66 67 68 68 69 69 70 72 72 73 74 75 76 78 78 79 80 81 81 82 83 83 84 85 86 87 88 89 90 90 91 92 93 94 95 95 96 97 99 100 101 102 103 105 106 108 110 112 113 115 117 119 121 124 127 129 131 133 136 138 141 144 146 149 151 153 154 155 155 156 157 157 157 157 157 157
59 60 60 61 62 62 63 63 64 64 64 65 66 66 67 68 69 70 70 71 72 73 74 75 75 76 77 77 78 79 79 80 81 82 83 84 84 85 86 87 87 88 89 90 91 92 93 94 95 96 97 98 99 101 103 104 106 108 109 111 113 116 118 121 123 125 126 128 131 133 136 138 141 145 148 150 152 154 156 157 158 159 159 160 160
58 58 59 59 60 60 61 62 62 62 62 63 63 64 65 65 66 67 68 68 69 70 70 71 72 72 72 73 74 75 76 77 78 79 79 80 80 81 82 83 84 85 85 86 87 88 89 90 91 92 93 94 95 96 97 99 100 102 104 106 108 110 113 116 118 120 121 123 126 128 130 132 134 138 141 143 146 149 151 153 155 157 158 160 161
58 58 58 58 59 60 61 61 60 60 60 61 61 62 63 63 64 65 65 66 66 67 68 69 69 70 70 71 72 73 74 75 76 77 77 78 78 79 80 81 82 83 83 84 85 86 87 87 89 90 91 92 93 94 95 96 97 99 101 102 105 107 110 112 114 116 118 120 122 124 126 128 130 133 135 137 141 143 146 148 150 152 153 155 157
57 58 58 59 59 60 61 61 60 60 61 61 61 62 63 63 64 65 65 66 67 67 68 68 69 69 70 70 71 72 73 74 75 76 77 78 78 78 79 80 81 82 83 84 84 85 86 87 88 89 91 92 93 94 95 96 97 98 100 101 104 106 108 110 113 115 117 118 120 122 123 125 127 129 131 133 135 138 141 144 146 147 148 150 152
58 57 58 58 60 62 63 63 62 62 62 63 64 64 64 65 65 66 67 67 68 69 69 70 70 70 71 72 72 73 74 75 76 77 79 79 80 80 81 82 82 83 84 85 86 86 87 88 90 91 92 93 95 96 96 97 98 99 100 102 104 105 107 109 111 114 116 118 120 121 122 124 126 127 129 131 132 133 136 139 142 143 145 146 148
59 59 58 58 60 62 64 65 64 64 64 64 65 66 67 67 67 68 69 69 70 71 71 72 72 72 73 74 75 75 76 76 77 78 80 81 82 83 83 84 84 85 86 86 87 88 89 90 91 93 94 95 96 97 98 99 99 101 102 103 105 106 107 109 111 113 115 117 119 120 122 123 125 126 128 129 130 131 132 134 137 139 141 142 144
61 61 61 61 62 64 66 67 67 65 65 66 67 68 69 69 69 70 71 72 72 73 74 74 74 75 75 76 77 78 78 79 79 80 81 82 83 84 85 85 86 86 86 87 88 89 90 91 92 94 95 96 97 98 99 100 101 102 103 104 105 106 107 109 110 112 114 115 117 118 120 121 123 124 126 128 129 129 130 131 133 134 136 138 140
64 64 64 65 65 66 68 70 70 69 67 67 67 69 70 71 71 72 73 74 74 75 75 76 76 77 77 78 79 80 81 81 82 82 83 84 85 85 86 86 87 87 87 88 88 89 89 91 92 94 96 97 99 99 100 101 103 104 104 105 105 106 107 109 110 111 113 114 115 116 118 119 120 122 123 124 125 126 127 128 129 131 132 133 135
66 67 67 68 68 69 71 72 74 74 72 70 69 70 72 73 74 74 75 76 77 77 77 78 78 79 80 80 81 82 83 83 84 84 85 85 86 87 87 88 88 88 89 89 89 89 90 91 93 94 96 98 100 101 102 103 104 105 105 106 107 108 109 110 111 112 113 114 115 115 116 117 118 119 120 121 121 122 123 123 125 126 127 128 130
65 67 68 68 70 71 72 74 75 76 76 74 73 72 73 75 75 76 77 78 79 79 79 80 80 81 81 82 83 83 83 84 84 85 85 86 87 87 88 88 88 88 89 89 89 89 90 92 93 94 97 99 101 103 104 105 106 106 107 108 109 110 111 112 113 114 114 115 115 115 115 116 116 116 116 117 117 117 118 118 119 121 122 123 124
63 66 67 67 69 70 71 73 74 75 76 77 76 75 74 75 76 76 77 78 79 79 80 80 81 81 81 82 82 82 83 83 84 84 85 86 86 87 87 88 88 88 88 89 89 90 91 92 94 96 98 100 102 104 105 106 107 108 109 110 111 112 112 113 114 115 115 115 115 115 115 115 115 115 114 114 114 114 114 114 115 116 117 118 119
61 63 64 65 66 67 69 70 72 73 75 76 77 76 76 75 76 76 77 78 78 79 79 80 80 81 81 81 81 82 82 83 83 83 84 85 86 87 87 88 88 89 89 90 90 91 93 94 96 97 99 100 102 104 106 108 109 110 111 112 113 113 114 115 116 116 116 115 115 115 114 114 113 113 112 112 111 111 111 112 112 113 113 114 115
59 60 61 63 64 65 66 67 69 70 71 73 74 75 75 75 75 76 76 77 78 78 79 79 80 80 80 81 81 82 82 83 83 84 84 85 86 87 88 88 89 90 91 91 92 94 95 97 98 99 100 102 103 106 107 109 110 111 112 113 114 115 116 116 116 116 116 115 115 114 113 112 112 111 110 110 110 110 110 110 110 110 110 111 113
58 59 60 61 62 63 64 65 67 68 69 71 72 73 73 74 74 75 75 76 77 77 78 78 79 80 80 81 81 82 83 83 84 85 85 86 87 88 89 90 90 91 92 93 95 97 98 99 100 101 102 103 105 106 108 109 110 111 112 114 115 115 116 116 116 115 115 114 114 113 112 111 110 110 109 109 109 109 108 108 108 108 108 109 110
57 59 60 61 61 62 63 64 65 67 68 69 70 71 72 72 73 74 75 76 77 77 78 79 80 80 81 81 82 83 84 85 85 86 86 87 88 89 90 91 93 94 95 96 98 100 101 102 103 103 104 105 106 107 108 109 110 111 113 114 115 115 114 114 114 113 113 112 112 112 111 111 110 109 109 109 108 108 107 107 106 106 107 107 108
58 59 60 61 62 62 63 64 65 66 67 68 69 70 71 72 73 74 75 77 78 79 80 80 81 81 82 83 83 84 85 86 86 87 87 88 89 91 93 94 96 97 98 100 101 102 103 104 105 105 106 106 107 108 108 109 111 112 112 113 113 113 112 112 111 111 111 111 111 111 111 111 110 109 109 108 108 107 106 106 106 106 106 107 108
59 60 61 63 64 64 65 66 66 67 68 69 69 70 71 72 73 75 76 77 79 80 81 81 82 83 83 84 85 86 86 87 87 88 89 90 92 94 96 97 98 99 101 103 104 104 105 106 107 107 107 107 107 108 109 110 111 111 111 110 110 110 109 109 109 109 109 109 109 109 110 110 110 109 109 108 107 107 106 106 106 106 107 107 108
63 63 63 64 65 66 67 69 70 71 71 72 72 73 73 74 75 76 78 79 80 81 82 83 84 84 85 86 87 88 89 89 90 90 92 93 95 98 99 100 101 102 104 105 106 106 107 107 107 107 107 108 108 110 110 110 110 109 108 107 107 107 107 107 108 108 108 108 108 109 109 109 109 109 109 108 108 107 107 106 106 105 106 106 106
70 69 68 67 67 68 69 71 73 74 75 76 77 77 77 78 79 80 81 82 83 84 85 86 87 88 88 89 90 92 92 93 93 94 95 96 98 101 102 102 103 105 106 106 107 108 108 108 108 108 108 109 109 110 109 108 107 106 106 105 105 105 105 105 106 107 107 107 107 108 108 108 108 108 108 108 107 107 106 105 104 104 103 103 103
77 76 75 73 72 72 72 73 75 76 78 80 81 81 82 83 84 85 85 86 87 88 89 90 91 92 92 93 94 95 96 96 97 97 98 99 101 103 103 104 105 106 107 107 107 108 108 108 108 108 109 109 109 108 107 106 105 104 104 104 103 103 103 104 105 105 106 107 107 107 107 108 107 107 106 106 105 104 103 102 101 101 100 100 100
81 81 81 79 78 77 76 76 77 79 81 82 83 84 85 86 87 88 89 90 91 92 93 94 94 95 95 96 97 98 98 99 99 99 100 101 103 104 104 105 106 106 107 107 107 108 108 108 108 108 108 108 107 105 104 103 103 103 102 102 102 102 102 103 104 105 105 106 106 106 107 107 106 105 104 103 102 101 100 99 98 98 97 97 97
84 85 85 84 83 82 80 80 80 81 83 84 85 86 86 87 89 90 92 93 94 95 95 96 97 98 98 99 100 100 101 101 101 101 101 102 103 104 105 105 106 106 107 107 108 108 108 108 108 107 106 105 104 103 102 102 101 101 101 101 101 101 101 102 103 104 104 105 105 105 105 105 104 103 102 100 99 98 97 96 96 95 95 95 94
87 87 88 87 86 85 84 83 83 84 84 85 85 86 87 88 89 91 93 94 95 96 97 98 99 99 100 100 101 102 102 102 102 102 102 103 103 104 105 106 106 106 107 107 107 108 108 107 106 105 103 102 102 101 101 100 100 99 99 99 100 100 101 102 102 103 104 104 104 104 103 102 101 99 99 98 97 96 95 94 94 93 93 93 93
90 90 89 87 87 86 86 85 85 85 85 85 85 86 86 88 90 91 93 94 96 97 98 99 99 100 100 101 101 102 102 102 102 102 103 104 104 105 105 106 106 107 107 107 107 107 106 104 103 102 101 101 100 100 99 99 98 98 98 98 98 99 101 101 102 102 103 103 102 102 100 99 97 96 96 95 94 93 93 92 92 92 92 92 92
91 91 90 88 87 87 86 86 85 85 85 84 85 86 87 89 90 92 93 94 96 97 98 99 99 99 100 101 101 102 102 102 102 103 104 104 104 105 106 106 107 107 107 106 105 104 102 101 101 100 100 99 99 99 98 98 97 97 97 97 98 99 100 101 102 102 101 101 100 99 98 96 95 94 93 93 92 91 91 90 90 90 90 90 90
93 92 91 89 89 88 87 86 85 85 85 85 86 87 89 91 92 93 94 95 97 98 98 99 99 100 100 101 102 102 102 103 103 104 104 105 105 106 106 106 106 106 105 103 102 101 100 99 99 99 99 98 98 98 97 97 96 96 96 96 97 98 99 100 100 100 100 99 98 97 95 94 93 93 92 91 91 90 89 88 88 88 87 87 88
95 94 93 92 92 90 89 88 87 87 87 87 88 90 91 93 94 95 97 98 99 100 100 101 101 101 102 103 103 104 104 104 105 105 105 105 105 105 105 105 104 103 101 100 99 98 98 98 98 98 98 97 97 97 97 96 96 96 96 96 97 97 98 98 99 98 98 97 96 94 93 93 92 91 91 90 89 89 88 86 86 85 85 86 86
97 97 96 95 94 92 91 90 89 89 89 89 90 92 93 94 95 97 98 99 101 102 102 103 103 104 104 104 105 105 105 105 105 104 104 104 104 103 103 102 101 99 98 98 97 97 97 97 97 97 97 97 97 96 96 95 95 95 95 96 96 96 96 97 97 96 96 95 94 93 92 91 91 90 89 88 87 87 85 84 83 83 83 84 84
98 97 96 95 94 92 91 90 89 90 90 90 91 92 93 94 95 97 98 99 100 101 102 103 103 103 103 104 104 104 103 103 102 102 102 101 101 101 100 99 98 97 96 96 96 96 96 96 96 96 96 96 96 95 94 94 94 95 95 94 94 94 94 95 95 94 94 93 92 91 90 90 89 88 87 86 85 84 83 82 81 81 81 81 82
96 95 94 93 92 91 91 90 90 90 90 90 90 91 92 93 94 95 96 97 98 99 100 100 101 101 101 101 101 101 100 100 99 100 100 100 99 99 98 97 96 96 95 95 96 96 96 96 96 96 95 95 95 94 93 93 94 94 94 93 92 92 92 92 92 92 92 91 90 89 88 88 87 86 85 84 83 82 81 80 79 79 79 79 79
95 94 93 92 92 92 92 91 91 91 90 90 91 91 92 93 94 95 95 96 97 98 98 98 99 99 99 99 99 98 98 98 99 99 99 98 98 98 97 96 95 95 95 95 96 96 95 95 95 95 95 94 94 93 92 93 93 93 93 92 90 89 89 89 90 90 90 89 88 87 86 86 85 84 84 83 81 80 79 78 77 77 77 77 77
95 94 94 94 94 94 94 94 93 93 93 92 92 93 93 94 95 96 96 97 97 97 98 98 98 99 99 98 98 97 98 98 98 99 98 98 98 97 96 95 94 94 95 95 96 95 95 95 94 94 93 93 93 92 92 92 92 93 92 90 88 87 87 87 87 88 87 86 86 85 84 84 83 83 83 83 81 79 78 76 75 75 75 75 75
96 96 96 96 96 96 96 96 96 96 96 96 95 95 96 96 96 97 97 98 98 98 98 98 99 99 98 98 97 97 98 98 98 98 98 97 97 96 95 95 94 94 95 95 95 94 94 94 93 93 92 92 92 91 91 91 91 91 90 87 85 85 85 85 85 85 84 83 83 82 82 81 81 81 82 82 81 79 77 75 75 75 75 75 76
97 97 97 97 97 97 97 97 97 97 97 97 97 97 97 97 97 97 98 98 98 98 98 98 98 97 97 96 96 97 97 97 97 97 97 96 96 95 95 94 94 94 94 94 94 93 93 92 92 91 90 91 91 91 90 90 90 89 86 84 83 83 83 83 83 82 81 80 80 80 80 79 78 79 80 80 79 78 76 75 74 74 74 75 77
98 97 97 97 97 97 96 96 97 97 97 97 97 97 97 97 97 97 97 97 97 97 97 97 96 95 95 95 95 96 96 96 96 96 95 95 95 95 94 93 93 93 93 92 92 91 91 91 90 89 89 89 90 90 89 88 87 86 83 81 81 81 81 81 81 79 78 78 78 78 78 77 77 77 78 78 78 77 75 74 73 72 72 73 76
99 98 97 96 95 96 96 96 96 96 96 96 96 96 97 96 96 97 96 96 96 96 96 95 94 93 94 94 95 95 95 95 95 94 94 94 94 93 92 92 91 91 91 90 90 90 89 89 88 88 88 88 89 89 88 86 84 82 80 79 79 79 79 79 78 77 76 76 76 76 76 76 76 76 76 77 77 77 75 73 72 70 70 71 74
95 96 96 95 94 93 93 94 94 95 95 95 95 96 96 96 96 96 96 96 96 96 94 93 93 93 93 94 94 93 93 93 93 93 92 92 92 91 90 89 89 89 88 88 88 87 87 87 86 86 86 87 87 87 86 83 81 80 79 78 77 77 76 76 75 74 74 75 75 75 75 75 75 75 75 76 77 77 75 73 71 69 69 70 72
89 90 91 91 90 89 89 90 91 91 92 92 93 93 94 94 94 94 95 95 95 94 93 92 92 92 92 92 92 92 91 91 91 90 90 90 89 88 88 87 86 86 86 86 86 85 85 85 84 85 85 86 85 85 83 81 79 78 78 77 75 74 74 73 72 72 73 73 73 74 74 75 76 75 75 76 76 77 75 72 69 68 68 69 70
83 84 84 84 83 83 83 84 85 86 86 87 88 88 89 89 90 90 91 91 90 90 90 89 89 89 89 89 89 89 88 88 87 87 87 87 86 85 84 84 84 84 84 84 83 83 82 83 83 84 84 84 83 81 80 79 79 78 77 75 73 72 71 70 69 70 71 71 72 73 73 75 75 75 75 75 76 76 75 73 70 67 66 66 66
78 79 80 79 78 77 77 78 78 79 80 80 81 81 82 83 83 84 85 85 85 85 85 85 85 85 85 85 85 85 85 84 84 83 83 83 83 82 81 81 82 82 82 81 81 81 80 81 82 82 82 81 80 78 77 78 78 77 75 74 72 71 69 68 67 68 69 70 71 72 73 74 75 75 75 75 75 75 75 73 71 69 66 65 64
73 73 73 73 72 71 72 72 72 73 74 75 75 75 76 76 77 78 78 79 80 80 80 80 80 80 80 81 81 81 81 81 80 80 79 79 79 79 79 80 80 80 79 79 79 79 79 79 80 80 79 78 76 76 76 77 77 76 74 73 71 70 68 67 66 67 67 68 69 71 72 74 75 75 75 74 74 74 73 72 71 69 67 66 65
69 69 69 68 67 66 66 67 67 68 69 69 70 70 69 70 70 71 72 73 74 75 75 75 75 76 77 77 78 78 77 77 76 75 76 76 77 77 77 78 78 77 77 77 77 77 77 77 77 77 76 75 75 75 76 76 75 73 72 72 71 69 68 67 66 66 67 68 68 69 71 73 74 74 74 73 73 73 73 72 71 69 67 65 65
68 67 66 65 64 63 63 63 63 64 65 65 65 65 65 65 66 66 67 68 69 70 70 70 71 72 74 74 74 73 73 72 72 72 73 74 74 75 75 76 76 75 75 75 75 75 74 74 73 73 73 73 74 74 75 74 72 71 71 71 70 69 68 68 67 67 67 67 67 68 70 71 72 72 72 72 71 71 70 70 69 68 66 66 65
66 65 64 64 63 62 62 62 62 62 63 63 62 62 62 63 63 63 64 64 65 66 66 66 68 69 70 70 69 68 68 68 69 70 71 72 72 73 73 73 73 73 72 72 72 72 71 71 70 70 70 71 72 73 73 72 71 70 70 70 69 69 69 69 68 68 67 66 67 68 69 70 70 70 70 70 70 69 68 68 67 65 65 65 64
65 65 64 63 63 62 62 61 61 61 61 61 60 60 61 61 61 62 62 62 63 63 63 63 64 64 65 65 64 64 64 65 67 68 69 70 70 70 70 71 71 70 69 69 69 69 69 68 68 68 69 69 70 71 71 70 69 69 70 70 70 70 70 70 69 68 67 66 66 67 68 68 68 68 69 69 69 69 69 68 67 65 63 63 63
63 64 63 62 62 61 61 61 60 60 60 60 59 59 59 59 60 60 60 60 60 60 60 60 60 60 61 61 60 61 62 63 65 66 67 67 67 67 67 68 68 67 66 67 67 67 67 67 66 66 67 67 68 69 69 68 68 69 70 70 70 70 70 70 70 69 67 66 66 67 67 68 68 67 67 67 68 68 68 68 66 63 61 61 60
62 62 62 62 61 61 61 60 60 60 59 58 58 58 57 57 57 57 58 58 58 58 58 58 58 58 57 57 58 59 60 61 62 63 63 63 64 64 64 65 65 64 64 64 65 65 66 65 65 64 65 65 65 66 67 67 68 69 69 69 70 70 71 71 70 69 67 66 67 67 67 68 68 67 67 66 66 67 67 65 62 59 58 57 58
61 61 60 60 60 59 59 59 58 58 57 57 56 55 55 55 55 55 55 55 55 55 55 55 55 55 55 56 56 57 58 59 59 59 60 60 61 61 61 62 62 62 63 63 64 64 64 63 62 62 63 63 63 64 65 67 68 69 69 68 68 69 70 70 69 68 67 67 68 68 68 69 69 68 68 67 67 68 67 65 63 60 56 55 55
Wind_Direction
271 271 270 270 269 269 269 269 269 268 268 268 268 268 268 268 268 267 267 267 266 266 266 266 266 266 266 266 266 266 266 265 265 265 265 265 265 265 265 265 265 264 264 263 263 263 263 263 263 262 262 262 263 263 263 263 262 262 262 263 263 263 263 262 262 262 262 262 261 261 261 260 260 260 259 259 259 258 258 257 257 257 256 256 255
272 272 272 272 272 272 272 271 271 270 270 269 268 268 268 268 268 267 267 267 267 267 267 267 267 267 267 267 267 267 267 267 267 267 266 266 267 267 267 266 266 266 266 266 266 265 265 265 264 264 264 264 264 264 264 263 263 263 263 263 263 263 262 262 262 262 262 262 261 261 261 261 261 260 260 259 259 258 258 258 257 257 257 256 256
272 272 272 272 272 272 272 271 271 270 270 269 269 269 269 268 268 268 267 267 267 267 267 267 268 268 268 268 268 268 268 268 268 268 268 267 267 267 267 267 267 267 267 267 267 267 267 266 266 266 266 266 265 265 265 265 265 265 264 264 264 263 263 263 263 262 262 262 261 261 261 261 261 261 260 260 259 259 258 258 258 257 257 257 256
273 273 273 273 272 272 271 270 270 270 270 269 269 269 268 268 268 268 268 267 267 268 268 268 268 268 268 268 268 268 268 268 268 268 268 267 267 267 267 267 267 266 267 267 267 267 267 267 267 267 267 266 266 266 266 266 266 266 266 266 265 265 264 264 264 263 263 263 262 262 261 261 261 261 261 260 260 259 259 258 258 257 257 257 256
274 273 273 272 272 272 271 270 270 269 269 269 269 268 268 268 268 268 268 267 267 268 268 268 268 268 268 268 268 268 268 268 268 268 268 268 268 268 268 268 268 267 267 267 267 267 267 267 267 267 267 267 267 267 267 267 268 268 267 267 267 267 266 265 265 264 264 263 263 263 262 262 262 261 261 261 261 260 260 259 258 258 257 257 257
275 274 273 273 272 272 271 271 271 270 269 269 269 269 268 268 268 268 268 268 268 268 268 268 268 269 269 269 268 269 269 269 269 269 270 270 270 270 270 270 270 270 270 270 270 270 270 269 269 269 269 269 269 269 269 269 269 269 269 269 269 269 269 268 267 267 266 265 264 264 263 262 262 262 262 262 261 261 261 260 259 259 258 257 257
275 274 274 274 274 274 273 273 272 272 271 271 270 269 269 269 268 268 268 268 268 268 268 268 268 268 268 268 268 268 268 269 269 269 270 270 270 270 270 271 271 272 272 272 272 272 272 272 272 272 272 272 272 271 271 271 271 271 271 270 270 270 270 270 269 269 268 268 267 266 265 264 264 263 263 262 262 262 262 261 260 260 259 258 258
273 272 273 274 274 274 274 274 273 273 272 272 271 271 270 270 270 269 269 269 270 269 269 269 269 269 269 270 270 269 269 269 269 269 269 269 269 269 269 270 270 270 271 271 272 272 272 272 272 272 272 272 272 271 271 271 270 270 270 270 270 270 269 269 269 269 269 269 268 268 267 267 266 265 265 264 263 263 263 262 262 261 260 259 259
274 273 272 272 272 272 273 273 273 272 272 272 272 272 272 272 272 272 272 271 271 272 272 271 271 271 271 271 271 271 271 271 270 270 270 269 269 269 269 269 269 270 270 271 271 271 272 272 272 272 273 273 272 272 272 272 272 271 271 271 270 270 269 269 269 269 268 268 268 268 267 267 267 267 266 266 265 265 264 264 264 263 262 260 259
275 275 273 272 271 271 271 271 270 269 269 270 271 272 272 272 272 272 272 272 272 272 272 272 273 272 272 272 272 273 273 273 272 272 272 271 271 271 270 270 270 271 271 271 272 272 273 274 274 275 275 276 276 276 276 276 276 275 275 274 274 273 272 271 271 270 270 269 269 268 268 268 267 267 267 266 266 266 265 265 264 264 263 263 261
276 276 275 274 273 273 273 273 272 270 269 269 269 271 271 271 272 272 272 272 272 272 273 273 273 273 273 273 273 273 274 274 274 273 273 273 272 272 272 272 272 272 272 272 272 272 273 274 275 276 277 278 278 278 279 279 279 279 279 278 278 277 276 275 274 274 273 272 271 271 270 269 269 268 267 267 266 266 265 265 264 264 264 263 263
276 276 276 276 275 275 275 276 276 275 274 272 272 272 273 273 273 273 273 273 273 273 273 274 274 274 274 274 274 274 274 274 275 275 274 274 274 274 274 274 274 273 273 273 273 273 273 274 275 277 278 279 280 280 280 280 280 280 280 280 280 279 279 278 278 277 276 276 275 274 273 272 271 270 269 268 267 266 266 265 265 264 264 263 263
275 275 274 274 274 275 275 276 277 277 278 277 276 274 274 274 274 274 274 274 275 275 275 275 275 275 275 275 275 275 275 275 276 276 275 275 275 275 275 275 275 275 275 274 274 275 275 276 277 278 279 280 281 281 281 282 282 281 281 281 281 280 280 280 279 279 279 278 278 277 276 275 274 273 271 270 269 268 267 266 265 265 264 264 263
278 277 276 275 275 274 274 275 275 276 277 278 277 276 276 275 275 275 275 275 276 276 276 276 276 276 276 276 276 276 276 276 276 276 276 276 276 276 276 276 276 276 276 276 276 277 277 278 278 279 280 281 282 282 283 283 283 283 283 282 282 282 281 281 280 280 280 280 279 278 277 277 276 274 273 272 271 270 268 267 266 265 265 264 264
280 279 279 278 277 276 276 275 275 275 275 276 276 277 277 276 276 276 276 276 276 277 277 277 277 277 277 277 277 277 277 277 277 277 277 277 277 277 277 277 277 277 277 277 278 278 279 279 280 281 282 282 283 283 284 284 284 283 283 283 282 282 282 282 281 281 281 280 280 279 278 277 276 275 274 273 272 270 269 268 267 266 265 265 265
281 280 280 279 278 278 277 276 276 275 275 275 275 276 276 276 276 276 276 276 276 276 276 276 276 276 276 276 276 276 277 277 277 277 277 277 278 278 278 278 278 278 278 279 279 279 280 280 281 282 282 283 283 283 284 284 283 283 283 283 283 283 282 282 282 282 281 281 280 279 278 277 277 276 275 274 273 271 270 269 268 267 266 265 265
282 282 281 280 280 279 278 278 277 277 276 276 276 276 276 276 276 276 276 276 276 276 276 276 276 276 276 276 276 276 277 277 277 278 278 278 278 278 278 278 278 278 279 279 280 280 280 281 281 282 282 283 283 283 283 283 283 283 283 283 283 283 282 282 282 282 281 281 280 280 279 278 277 276 276 275 274 273 272 271 269 268 267 266 265
286 284 283 282 281 280 279 279 278 278 277 277 277 277 277 277 277 277 276 276 276 276 276 276 276 276 276 276 276 277 277 277 277 278 278 278 278 278 278 278 278 279 279 279 280 280 281 282 282 282 283 283 283 283 283 283 282 282 282 283 283 282 282 282 282 281 281 280 280 280 279 279 278 277 277 276 275 274 273 272 271 270 268 267 265
287 286 286 285 284 283 282 281 280 279 278 278 278 278 278 278 277 277 277 276 276 276 276 276 276 276 276 276 277 277 277 277 277 277 277 277 277 278 278 278 279 279 280 280 280 281 282 283 283 283 284 284 283 283 283 283 283 283 283 283 282 282 282 281 281 281 280 280 280 279 279 279 278 278 277 276 276 275 274 273 272 271 269 268 266
285 285 285 285 285 285 284 283 282 281 280 280 279 279 279 278 278 277 277 276 276 276 276 276 276 276 276 276 276 276 276 276 276 276 276 277 277 278 278 279 279 280 280 281 282 283 283 284 284 284 284 284 284 284 284 284 283 283 283 282 282 282 281 281 281 280 280 280 279 279 279 278 278 278 278 277 277 276 275 274 273 272 270 269 267
285 284 283 283 284 284 284 283 283 282 282 281 281 280 279 279 278 277 277 277 276 276 276 276 276 276 276 276 276 276 276 276 276 276 277 277 278 278 279 280 281 281 281 282 283 284 284 284 285 285 285 285 285 285 285 284 284 283 283 282 282 281 281 281 280 280 280 279 279 279 279 278 278 278 278 278 278 277 277 275 274 273 272 270 268
288 286 284 283 283 283 283 283 283 283 283 282 282 281 280 280 279 278 278 278 278 277 277 277 277 277 277 277 277 277 277 277 277 277 278 278 279 279 280 281 281 282 282 283 284 284 285 285 285 286 286 286 286 285 285 285 284 284 283 282 282 281 281 280 280 280 280 279 279 279 279 279 279 279 279 279 279 278 278 277 275 274 273 271 270
290 288 286 285 285 284 284 284 285 284 284 283 283 282 282 281 281 280 280 279 279 279 279 279 278 278 278 278 278 278 278 278 278 279 279 279 280 280 281 282 282 282 283 284 284 284 285 285 286 286 286 286 286 286 285 285 284 284 283 283 282 282 281 281 280 280 280 280 280 280 280 280 280 280 280 280 279 279 278 277 276 275 274 272 271
291 290 288 287 286 285 286 286 286 285 284 283 283 282 282 282 282 281 281 280 280 280 279 279 279 279 279 279 279 279 279 279 279 280 280 280 280 281 282 282 282 283 283 284 284 285 285 286 286 287 287 286 286 285 285 284 284 283 283 282 282 282 281 281 281 281 281 281 282 282 282 282 282 282 281 281 280 279 278 277 276 275 274 273 272
289 289 289 288 287 287 287 286 285 284 283 283 283 282 282 282 281 281 280 280 280 279 279 279 279 279 279 279 279 279 279 280 280 280 280 281 281 281 282 282 283 283 283 284 285 285 286 287 287 287 286 286 285 285 285 284 284 283 283 283 282 282 282 282 282 282 282 283 283 283 283 283 283 283 282 281 281 280 279 278 277 276 275 273 272
287 287 287 287 288 288 287 286 285 284 284 283 283 282 282 281 281 280 280 279 279 279 278 278 278 279 279 279 279 279 280 280 281 281 281 281 281 281 282 282 283 283 284 285 285 286 287 287 287 286 286 286 285 285 284 284 284 284 283 283 283 283 283 283 283 283 284 284 283 283 283 283 283 283 282 282 281 280 279 278 278 277 276 275 274
285 285 285 285 286 286 286 285 284 284 284 283 283 282 281 281 280 279 279 278 278 278 278 278 278 278 279 279 279 280 280 280 281 281 281 281 281 282 282 283 283 284 285 285 286 287 287 287 286 286 286 285 285 285 284 284 284 284 284 284 284 284 284 284 285 285 285 284 284 284 284 284 284 283 282 282 281 280 280 279 278 277 276 276 275
283 283 283 283 283 283 283 283 283 283 283 282 282 281 280 280 279 278 278 278 278 278 278 278 278 278 278 279 279 279 280 280 280 280 281 281 282 282 283 284 284 285 285 286 287 287 287 286 286 285 285 285 285 285 284 284 285 285 285 285 285 285 285 286 286 286 285 285 285 285 285 285 284 284 283 282 281 280 280 279 278 277 277 276 275
284 284 284 283 283 282 282 282 282 282 281 281 280 280 279 278 278 278 278 278 278 278 278 278 278 278 278 278 279 279 279 280 280 281 281 282 282 283 284 284 285 285 286 286 286 286 286 285 285 285 285 285 285 285 285 285 285 285 286 286 286 286 286 287 287 287 287 286 286 286 286 286 285 284 283 283 282 281 280 279 278 277 276 275 274
287 286 286 285 285 284 284 283 283 282 281 280 279 279 278 278 278 278 277 277 277 277 278 278 278 278 278 279 279 279 280 280 281 281 282 283 283 283 284 284 285 285 286 286 286 285 285 285 285 285 285 285 285 285 285 286 286 286 286 286 287 287 287 287 288 288 287 287 287 287 287 286 285 285 284 283 282 281 280 279 278 277 277 276 275
287 287 287 287 286 286 285 285 284 283 281 280 279 278 277 277 276 276 276 276 277 277 277 278 278 278 279 279 279 280 280 281 281 282 283 283 283 283 284 284 285 285 285 285 285 285 285 285 285 285 285 285 285 286 286 286 287 287 287 287 288 288 288 288 288 288 287 287 287 287 287 286 285 284 283 282 281 280 279 279 278 277 277 276 275
287 287 287 287 287 287 286 285 284 282 281 280 279 278 278 277 277 277 277 277 277 278 278 278 279 279 279 280 280 280 281 282 282 283 283 283 283 283 284 284 285 285 285 285 285 285 285 285 285 285 285 285 285 286 286 287 287 287 287 288 289 289 289 289 288 288 287 287 287 287 287 286 285 284 283 282 281 280 280 279 279 278 277 276 276
287 287 287 287 286 286 285 284 283 282 282 281 280 280 279 279 279 279 278 278 278 278 278 279 279 279 280 280 280 281 282 282 283 282 282 283 283 283 284 284 284 285 285 285 285 285 285 285 285 285 285 285 286 286 287 287 287 288 288 289 289 289 289 289 288 288 287 287 288 287 287 286 285 284 283 282 281 281 281 280 280 279 278 277 276
287 287 287 287 286 285 284 284 283 283 282 282 281 281 280 280 280 279 279 279 278 279 279 279 280 280 280 280 281 281 282 282 282 282 282 282 283 283 283 284 284 285 285 285 284 284 285 285 285 285 286 286 287 287 287 288 288 288 289 289 290 289 288 288 288 288 288 288 288 287 287 286 285 284 283 282 281 280 280 279 279 278 277 277 276
286 286 286 286 285 285 284 284 284 283 283 282 282 281 280 280 280 279 279 279 279 279 279 279 280 280 280 280 281 282 282 281 281 281 282 282 282 283 283 284 284 284 284 284 284 284 285 285 285 286 286 287 287 287 288 288 288 288 289 290 289 288 287 287 287 287 288 288 288 287 286 286 285 285 284 283 283 282 281 280 280 279 278 277 276
287 286 286 285 285 284 284 284 283 283 282 282 281 280 280 279 279 279 279 279 279 279 279 279 279 279 279 280 281 281 281 281 281 281 281 282 282 283 283 284 284 284 284 284 284 284 285 285 285 286 286 287 287 287 288 288 288 288 289 289 288 288 287 287 287 287 288 288 287 286 286 285 285 285 284 284 284 283 283 282 282 281 281 281 280
287 286 285 285 284 284 283 283 282 282 281 281 280 279 279 278 278 278 277 277 278 278 278 278 278 278 279 279 279 279 280 280 280 280 281 281 282 282 283 283 283 283 283 283 284 284 284 285 285 286 287 287 287 287 288 288 288 288 289 289 288 287 287 288 288 288 288 287 286 286 285 285 285 284 284 284 283 283 283 283 283 283 284 284 283
287 286 285 284 284 283 283 282 281 281 280 280 279 279 278 278 277 277 277 277 277 277 277 277 277 278 278 279 279 279 279 279 279 280 280 281 281 282 282 282 282 282 282 283 283 284 284 285 285 286 286 286 287 287 287 288 288 289 289 288 288 288 288 288 288 288 288 287 286 286 285 285 284 284 284 283 283 283 283 283 283 284 285 285 284
286 285 285 284 283 283 282 282 281 281 280 280 279 279 278 278 278 277 277 277 277 277 277 277 278 278 278 278 278 278 278 279 279 280 280 280 281 281 281 281 281 282 282 283 283 284 284 285 285 286 286 286 287 287 288 288 288 289 288 288 288 289 289 289 289 288 288 287 286 286 285 285 284 284 284 284 284 284 283 284 284 284 284 283 283
285 285 285 284 283 283 283 282 281 281 281 280 280 279 279 279 279 278 278 278 278 278 278 279 279 278 278 278 278 278 278 278 279 279 279 280 280 280 280 281 281 282 282 282 283 284 284 285 285 286 286 286 287 287 288 288 288 288 288 288 288 289 289 289 289 289 288 288 287 286 286 286 285 285 285 285 285 285 285 285 285 285 285 284 284
284 284 283 283 283 283 283 282 282 282 281 281 281 280 280 280 280 280 280 279 279 280 280 279 279 278 278 278 278 278 278 278 278 279 279 279 279 279 280 280 281 281 282 282 283 283 284 285 285 286 286 287 287 288 288 289 288 288 288 288 289 289 289 289 289 289 288 288 287 287 287 287 286 286 286 286 286 286 287 287 286 286 286 286 286
285 285 284 284 284 284 284 283 283 283 282 282 281 281 281 280 280 280 280 280 280 279 279 278 278 277 277 277 277 277 277 277 277 277 278 278 278 279 280 280 280 281 281 282 283 283 284 285 285 286 286 287 287 288 289 289 288 288 289 289 289 289 288 288 289 289 288 288 288 288 288 288 288 288 288 288 288 288 289 289 288 287 286 285 285
286 286 286 286 286 286 285 284 284 283 282 282 281 281 280 280 280 279 279 279 279 278 278 277 277 277 277 277 276 276 276 276 276 277 277 278 278 279 279 280 280 280 281 282 283 284 284 285 286 286 287 287 288 289 289 288 288 289 290 290 289 289 289 289 289 289 288 288 288 288 289 289 289 289 289 289 290 290 290 290 290 289 288 287 285
286 286 286 286 286 286 285 285 285 284 283 283 282 281 281 280 280 279 279 278 278 277 277 277 276 276 276 276 275 275 275 276 276 277 277 278 278 278 279 279 279 280 281 282 283 284 285 285 286 286 287 288 288 289 288 288 289 290 291 290 290 290 289 289 289 288 288 288 289 289 290 290 290 290 290 290 291 291 291 291 291 291 290 289 288
288 288 288 287 287 287 286 286 285 285 284 283 283 283 282 282 281 280 279 278 278 277 277 277 276 276 275 275 275 275 276 277 277 277 277 277 278 278 278 279 279 280 281 282 283 284 285 285 286 287 288 288 289 288 288 289 290 291 291 291 291 291 290 290 289 289 289 289 289 289 289 289 289 290 290 291 291 291 292 292 291 291 291 290 289
292 291 291 290 289 288 287 287 286 285 285 285 285 285 285 284 283 282 281 280 279 278 278 277 276 276 275 276 276 277 277 277 277 277 277 277 277 277 278 279 280 281 282 283 284 284 285 286 286 287 288 289 289 289 289 290 290 291 291 291 291 291 291 291 290 290 290 290 290 289 289 289 289 290 290 290 290 290 290 290 290 291 291 290 289
294 294 293 293 292 292 291 290 289 288 288 287 287 287 286 285 284 283 282 282 281 280 279 278 277 277 277 277 278 278 278 277 277 276 276 277 277 278 279 280 281 282 283 284 284 285 286 286 287 287 288 288 289 290 290 291 291 292 292 291 292 292 291 291 291 291 291 291 291 290 289 289 289 290 290 290 290 289 289 290 290 291 291 290 289
296 295 295 295 294 294 293 292 291 290 290 289 289 288 287 287 286 286 285 284 284 283 282 281 280 280 280 279 279 278 277 277 276 276 277 277 278 279 280 281 282 283 284 284 285 285 286 286 287 287 288 289 289 290 291 292 292 292 292 292 292 293 293 293 293 293 293 292 292 291 290 290 290 291 291 292 292 292 292 291 291 290 290 289 288
297 296 296 296 295 295 294 294 293 292 292 291 291 290 289 289 288 288 287 286 286 285 284 284 283 282 281 281 280 279 278 277 277 277 278 279 280 281 282 283 283 284 284 285 285 286 286 286 287 288 289 289 290 290 291 292 292 292 292 293 294 294 295 295 294 294 294 294 293 293 292 292 292 291 291 290 290 289 289 288 288 289 288 287 286
298 298 297 297 297 296 296 295 294 293 293 292 291 290 290 289 289 288 287 286 285 285 284 284 283 283 282 281 280 279 279 279 279 280 281 282 282 283 283 284 284 285 285 285 285 286 286 287 288 289 290 290 291 291 292 293 293 293 293 295 295 296 296 296 296 296 297 297 296 295 294 293 292 292 291 291 290 289 288 288 288 288 287 287 287
299 298 297 297 296 296 295 295 294 294 293 293 292 292 291 290 289 288 287 286 286 285 285 285 284 283 283 282 281 281 281 282 282 283 283 283 284 284 284 285 285 286 286 285 286 286 287 288 289 290 291 291 291 292 292 292 293 293 295 296 296 296 296 295 296 297 297 297 296 295 295 294 294 294 294 294 293 292 292 292 292 291 289 288 287